[[{"header":{"parameterUnit":"m.s-1","parameterCategory":2,"la1":30.2991,"la2":30.254,"lo1":-89.0895,"lo2":-89.0444,"dy":0.0017,"dx":0.0017,"nx":28,"ny":28,"refTime":"2023-08-10T09:00:00:Z","depth":"0","parameterNumber":2,"parameterNumberName":"U-component_of_CURRENTS"},"data":[0,0,0,0,0,0,0,0,0,0,0,0,0,0,0,0,0,0,0,0,0,0,0,0,0,0,0,0,0,0,0,0,0,0,0,0,0,0,0,0,0,0,0,0,0,0,0,0,0,0,0,0,0,0,0,0,0,0,0.3638,0.364,0,0.374,0.3741,0.3742,0.3735,0.3734,0.3733,0.3731,0.3773,0.3776,0.3778,0,0,0,0,0,0,0,0,0,0,0,0,0,0.3446,0.3449,0.3638,0.364,0.3641,0.374,0.3741,0.3742,0.3735,0.3734,0.3732,0.3731,0.3773,0.3775,0.3778,0,0,0,0,0,0,0,0,0,0,0,0,0,0.3534,0.345,0.3638,0.3652,0.3654,0.374,0.3741,0.3743,0.3736,0.3734,0.3732,0.373,0.3772,0.3775,0.3778,0.3836,0,0,0.3789,0.379,0,0,0,0,0,0,0,0,0.3529,0.3541,0.3648,0.3651,0.3654,0.3726,0.3689,0.3772,0.3736,0.3702,0.3731,0.3729,0.3755,0.376,0.378,0.3838,0.384,0.3789,0.3791,0.3793,0.3794,0,0,0,0,0,0,0,0.3523,0.3536,0.3675,0.365,0.3654,0.3656,0.3666,0.3705,0.3734,0.3704,0.3705,0.3722,0.3756,0.3777,0.3781,0.3841,0.3789,0.3792,0.3794,0.3796,0.4038,0.4043,0,0,0,0,0,0,0.3519,0.3531,0.3672,0.3679,0.3589,0.3661,0.3673,0.3702,0.3735,0.374,0.3723,0.3721,0.3772,0.3777,0.3782,0.3867,0.3793,0.3796,0.3798,0.4034,0.4039,0.4044,0,0,0,0,0,0,0.3515,0.3531,0.3668,0.3608,0.3626,0.3667,0.37,0.3705,0.3724,0.3751,0.3753,0.3736,0.377,0.3777,0.3848,0.3868,0.3797,0.3801,0.4029,0.4036,0.4042,0.4028,0,0,0,0,0,0,0.3509,0.3529,0.3548,0.3609,0.363,0.3733,0.3702,0.3709,0.3739,0.3737,0.3763,0.3765,0.3769,0.3843,0.3851,0.3871,0.3803,0.4023,0.4032,0.404,0.4023,0.4033,0.4042,0,0,0,0,0,0.3502,0.3546,0.3549,0.3566,0.3656,0.3736,0.3747,0.3766,0.3741,0.377,0.3798,0.3764,0.3901,0.3849,0.3858,0.3879,0.4019,0.4029,0.4039,0.4018,0.4031,0.4042,0,0,0,0,0,0,0.3474,0.3551,0.3556,0.362,0.3676,0.3735,0.3768,0.3772,0.3817,0.3812,0.3814,0.3822,0.3901,0.3914,0.3856,0.3987,0.3958,0.397,0.394,0.3952,0.3962,0.3994,0.3806,0,0,0,0,0,0.3478,0.3531,0.3597,0.365,0.3678,0.3719,0.375,0.3769,0.3817,0.3832,0.3853,0.3896,0.3955,0.3967,0.4032,0.4085,0.4144,0.4116,0.4126,0.4133,0.4175,0.4284,0.4305,0.4077,0.4077,0.4076,0,0,0.3477,0.3532,0.3557,0.3647,0.3688,0.374,0.3733,0.3797,0.3832,0.3833,0.3891,0.3939,0.3989,0.4064,0.4097,0.4063,0.4234,0.4146,0.415,0.419,0.4296,0.4318,0.4337,0.4083,0.4082,0.4081,0,0,0.3511,0.3557,0.3606,0.3657,0.3734,0.3768,0.3785,0.3853,0.3875,0.3947,0.3968,0.405,0.4102,0.4164,0.4191,0.4306,0.4299,0.4302,0.4342,0.4446,0.4464,0.4481,0.4579,0.4605,0.4281,0.4281,0.4281,0,0.3502,0.3574,0.3632,0.3692,0.3727,0.3776,0.382,0.3869,0.395,0.398,0.397,0.4124,0.4166,0.4266,0.4312,0.4325,0.4371,0.4268,0.4452,0.4471,0.4488,0.4585,0.4613,0.4281,0.4281,0.4281,0.4281,0,0.3562,0.3619,0.3659,0.374,0.3788,0.3848,0.3911,0.3962,0.3984,0.4031,0.4145,0.423,0.4312,0.4341,0.4356,0.4497,0.4487,0.4459,0.4401,0.4509,0.4606,0.4635,0.4282,0.4282,0.4282,0.4282,0,0,0.354,0.3669,0.3679,0.3712,0.3814,0.3856,0.3929,0.4009,0.4042,0.4143,0.4206,0.4354,0.4394,0.4441,0.4475,0.4574,0.4742,0.4561,0.4566,0.4623,0.4963,0.4904,0.493,0.4712,0.4717,0.4721,0.4976,0,0.356,0.366,0.3718,0.3791,0.3841,0.39,0.3952,0.4032,0.4094,0.4176,0.4296,0.4387,0.4425,0.4459,0.4574,0.4717,0.4822,0.4677,0.4885,0.4894,0.4796,0.4964,0.4735,0.4938,0.5005,0.501,0.5014,0,0.359,0.3654,0.3726,0.3807,0.3827,0.387,0.3943,0.4002,0.4133,0.4183,0.4306,0.4385,0.4589,0.4578,0.4889,0.4779,0.4891,0.4991,0.5001,0.498,0.4891,0.485,0.499,0.4808,0.506,0.5056,0.5053,0,0.3545,0.3652,0.37,0.3733,0.3835,0.3859,0.3904,0.4007,0.4047,0.4203,0.4252,0.4469,0.4579,0.4785,0.5,0.4949,0.5318,0.5259,0.5319,0.5314,0.5188,0.5163,0.5151,0.5482,0.5482,0.5481,0.548,0,0.3554,0.359,0.3679,0.3711,0.3741,0.382,0.3857,0.393,0.4033,0.4099,0.4253,0.4351,0.4634,0.4848,0.5038,0.5293,0.5354,0.5397,0.54,0.5178,0.515,0.5039,0.4952,0.549,0.5488,0.5486,0.5485,0,0.3516,0.3581,0.3631,0.3713,0.373,0.375,0.381,0.3835,0.3946,0.4041,0.4094,0.4314,0.4601,0.4866,0.5216,0.5325,0.5428,0.563,0.5352,0.532,0.518,0.5101,0.5055,0.4925,0.5766,0.5767,0.5767,0,0.3514,0.3541,0.3605,0.361,0.3646,0.3679,0.3691,0.3787,0.3823,0.4017,0.4064,0.4334,0.4514,0.4999,0.5267,0.5601,0.542,0.5535,0.5418,0.5199,0.5116,0.4925,0.4804,0.5253,0.5249,0.5246,0.5243,0,0.35,0.3513,0.3549,0.3555,0.3564,0.3564,0.3603,0.3615,0.3741,0.3836,0.4,0.4158,0.4581,0.4822,0.5213,0.5383,0.5225,0.5479,0.5326,0.4806,0.4529,0.4391,0.5055,0.5215,0.5218,0.522,0.5221,0.5222,0.3472,0.3478,0.3508,0.3505,0.3482,0.3449,0.343,0.3482,0.3538,0.3652,0.3872,0.4049,0.4382,0.4908,0.5024,0.5048,0.5085,0.4956,0.4916,0.4773,0.4521,0.5133,0.5234,0.5237,0.5239,0.5242,0.5243,0,0.347,0.3472,0.3454,0.3426,0.3343,0.3373,0.336,0.3327,0.3359,0.3501,0.3646,0.391,0.4141,0.4382,0.4601,0.4506,0.4334,0.4386,0.4037,0.3978,0.4596,0.444,0.4279,0.4279,0.428,0.428,0.428,0.428,0.348,0.3472,0.3461,0.3322,0.3263,0.3158,0.3138,0.3105,0.3157,0.3199,0.3292,0.3448,0.3784,0.4022,0.3996,0.3948,0.3657,0.353,0.3557,0.3935,0.3982,0.4027,0.3858,0.3578,0.3577,0.2758,0.2752,0.2747]},{"header":{"parameterUnit":"m.s-1","parameterCategory":2,"la1":30.2991,"la2":30.254,"lo1":-89.0895,"lo2":-89.0444,"dy":0.0017,"dx":0.0017,"nx":28,"ny":28,"refTime":"2023-08-10T09:00:00:Z","depth":"0","parameterNumber":3,"parameterNumberName":"V-component_of_CURRENTS"},"data":[0,0,0,0,0,0,0,0,0,0,0,0,0,0,0,0,0,0,0,0,0,0,0,0,0,0,0,0,0,0,0,0,0,0,0,0,0,0,0,0,0,0,0,0,0,0,0,0,0,0,0,0,0,0,0,0,0,0,-0.0168,-0.0169,0,-0.0248,-0.0249,-0.025,-0.0349,-0.035,-0.0352,-0.0353,-0.0438,-0.0439,-0.044,0,0,0,0,0,0,0,0,0,0,0,0,0,-0.0127,-0.0128,-0.0168,-0.0169,-0.017,-0.0248,-0.0249,-0.025,-0.0349,-0.035,-0.0352,-0.0354,-0.0437,-0.0439,-0.044,0,0,0,0,0,0,0,0,0,0,0,0,0,-0.0171,-0.0128,-0.0168,-0.0227,-0.0233,-0.0248,-0.0249,-0.0251,-0.0348,-0.035,-0.0352,-0.0354,-0.0437,-0.0438,-0.044,-0.0406,0,0,-0.0444,-0.0445,0,0,0,0,0,0,0,0,-0.0169,-0.0173,-0.0217,-0.0223,-0.023,-0.0289,-0.0266,-0.0302,-0.0348,-0.0306,-0.0353,-0.0356,-0.0386,-0.0392,-0.0404,-0.041,-0.0413,-0.0444,-0.0445,-0.0446,-0.0446,0,0,0,0,0,0,0,-0.0165,-0.017,-0.0201,-0.0218,-0.0226,-0.0259,-0.0267,-0.0273,-0.0334,-0.031,-0.0317,-0.0323,-0.039,-0.0402,-0.0407,-0.0415,-0.0444,-0.0445,-0.0446,-0.0447,-0.0361,-0.0358,0,0,0,0,0,0,-0.0148,-0.0167,-0.0199,-0.0203,-0.0202,-0.0257,-0.0267,-0.0269,-0.0334,-0.0346,-0.0321,-0.0327,-0.0399,-0.0405,-0.041,-0.0328,-0.0446,-0.0447,-0.0448,-0.0364,-0.036,-0.0357,0,0,0,0,0,0,-0.0147,-0.015,-0.0195,-0.0186,-0.0194,-0.0256,-0.0257,-0.027,-0.0285,-0.0342,-0.0355,-0.0324,-0.0401,-0.0408,-0.0392,-0.0334,-0.0448,-0.0449,-0.0368,-0.0363,-0.0358,-0.0192,0,0,0,0,0,0,-0.0146,-0.0149,-0.0138,-0.0185,-0.0194,-0.0189,-0.0256,-0.027,-0.0285,-0.0294,-0.0349,-0.0359,-0.0403,-0.0389,-0.0393,-0.0338,-0.045,-0.0372,-0.0365,-0.036,-0.0202,-0.0183,-0.0166,0,0,0,0,0,-0.0144,-0.0119,-0.0137,-0.0141,-0.0179,-0.0188,-0.0195,-0.0248,-0.0282,-0.0273,-0.0301,-0.0358,-0.0356,-0.0388,-0.0393,-0.0337,-0.0374,-0.0367,-0.036,-0.021,-0.0186,-0.0167,0,0,0,0,0,0,-0.0091,-0.0128,-0.0149,-0.0136,-0.0153,-0.0204,-0.0197,-0.0233,-0.025,-0.0255,-0.0319,-0.0328,-0.029,-0.0331,-0.0365,-0.0293,-0.0373,-0.0367,-0.0257,-0.0235,-0.0218,-0.0181,-0.0451,0,0,0,0,0,-0.0071,-0.0067,-0.0103,-0.0088,-0.0092,-0.014,-0.0149,-0.0181,-0.0205,-0.0217,-0.0247,-0.0268,-0.0262,-0.0265,-0.0271,-0.0232,-0.0263,-0.0198,-0.018,-0.0165,-0.0137,-0.013,-0.0109,-0.0334,-0.0334,-0.0334,0,0,-0.0047,-0.0064,-0.0063,-0.0077,-0.0096,-0.0071,-0.0151,-0.015,-0.0121,-0.0218,-0.0177,-0.0205,-0.0236,-0.0189,-0.0176,-0.022,-0.0115,-0.0156,-0.0143,-0.0123,-0.012,-0.0098,-0.0079,-0.0329,-0.033,-0.0331,0,0,0.0012,-0.0007,0.0018,0.0016,0.0002,-0.0016,-0.0009,-0.004,-0.0045,-0.0011,-0.0062,-0.0043,-0.0054,-0.0049,-0.0053,0.0064,-0.0018,0.005,0.0167,0.0174,0.0192,0.0208,0.0203,0.0216,0.0055,0.0055,0.0055,0,0.0042,0.0071,0.0028,0.006,0.0077,0.002,0.0068,0.0067,0.005,0.0074,0.0026,0.0061,0.0026,0.0102,0.0136,0.0108,0.0082,0.0085,0.0198,0.0212,0.0226,0.0216,0.0229,0.0064,0.0063,0.0062,0.0061,0,0.0118,0.015,0.0171,0.0197,0.0212,0.0244,0.024,0.0266,0.0254,0.025,0.0317,0.0283,0.0299,0.0297,0.0248,0.0339,0.028,0.022,0.0142,0.0259,0.024,0.0251,0.0077,0.0074,0.0071,0.0069,0,0,0.0171,0.0214,0.0225,0.0265,0.0289,0.031,0.0386,0.0437,0.0494,0.0492,0.0573,0.0589,0.0553,0.055,0.0499,0.0508,0.0572,0.0408,0.0404,0.0402,0.0577,0.0514,0.0518,0.0518,0.0521,0.0523,0.0528,0,0.0248,0.0332,0.0341,0.0446,0.0494,0.0496,0.0572,0.0613,0.0636,0.0701,0.0693,0.074,0.0654,0.0663,0.0668,0.06,0.0608,0.0576,0.0466,0.0463,0.0392,0.0532,0.0482,0.048,0.0537,0.0539,0.054,0,0.0328,0.0374,0.0477,0.0574,0.0597,0.0655,0.0765,0.0824,0.0899,0.0918,0.0965,0.0938,0.0984,0.0871,0.0846,0.0822,0.0725,0.0659,0.0656,0.0551,0.0422,0.0372,0.0496,0.023,0.0556,0.0554,0.0553,0,0.0383,0.0481,0.0567,0.0596,0.0688,0.0751,0.0807,0.0891,0.0962,0.1053,0.1109,0.1137,0.1154,0.1074,0.0933,0.0891,0.0875,0.0792,0.0653,0.0645,0.0561,0.0542,0.0418,0.0777,0.0777,0.0777,0.0777,0,0.0469,0.0543,0.0595,0.0644,0.0759,0.0806,0.0938,0.0999,0.1105,0.1217,0.1214,0.1305,0.12,0.1164,0.1017,0.0885,0.0939,0.0719,0.0664,0.0617,0.0604,0.0331,0.0214,0.0777,0.0777,0.0777,0.0777,0,0.0527,0.0562,0.0657,0.0749,0.0786,0.0863,0.0999,0.1096,0.1185,0.1336,0.1373,0.1442,0.1421,0.1286,0.1162,0.0995,0.0733,0.0784,0.0732,0.0672,0.0298,0.0195,0.0083,0.0013,0.0669,0.0668,0.0667,0,0.0568,0.0616,0.0707,0.0759,0.0805,0.0916,0.1005,0.112,0.1231,0.1426,0.1513,0.1554,0.1619,0.1427,0.1148,0.0916,0.0701,0.067,0.0593,0.0313,0.0157,0.0091,0.0037,0.0544,0.0542,0.0541,0.0539,0,0.0637,0.0653,0.0716,0.081,0.09,0.1026,0.1163,0.1265,0.1428,0.1581,0.1782,0.186,0.1684,0.148,0.1128,0.092,0.0501,0.0629,0.0363,0.0094,-0.0005,-0.0112,0.0485,0.0525,0.0527,0.0528,0.0528,0.0529,0.0672,0.0716,0.0782,0.0878,0.0987,0.1155,0.1288,0.1456,0.1676,0.1948,0.1968,0.2126,0.1736,0.1293,0.0967,0.0306,0.0398,0.0102,0.0015,-0.0016,-0.0121,0.0446,0.04,0.0401,0.0402,0.0402,0.0403,0,0.0722,0.0774,0.0856,0.0989,0.1125,0.1184,0.1417,0.1585,0.1873,0.2083,0.2269,0.2121,0.1626,0.1074,0.0218,-0.024,-0.0372,-0.0485,-0.0612,-0.0623,-0.0114,-0.0166,-0.0364,-0.0364,-0.0364,-0.0363,-0.0363,-0.0363,0.076,0.0839,0.0881,0.1096,0.1205,0.1438,0.1595,0.1853,0.2053,0.2321,0.2391,0.2397,0.1908,0.0411,-0.0662,-0.0895,-0.1148,-0.1196,-0.1286,-0.1016,-0.0969,-0.0925,-0.1005,-0.1375,-0.1377,-0.1765,-0.177,-0.1773]}],[{"header":{"parameterUnit":"m.s-1","parameterCategory":2,"la1":30.2991,"la2":30.254,"lo1":-89.0895,"lo2":-89.0444,"dy":0.0017,"dx":0.0017,"nx":28,"ny":28,"refTime":"2023-08-10T09:00:00:Z","depth":"2","parameterNumber":2,"parameterNumberName":"U-component_of_CURRENTS"},"data":[0,0,0,0,0,0,0,0,0,0,0,0,0,0,0,0,0,0,0,0,0,0,0,0,0,0,0,0,0,0,0,0,0,0,0,0,0,0,0,0,0,0,0,0,0,0,0,0,0,0,0,0,0,0,0,0,0,0,0.1522,0.1522,0,0.1546,0.1546,0.1547,0.1604,0.1605,0.1606,0.1606,0.1768,0.1771,0.1775,0,0,0,0,0,0,0,0,0,0,0,0,0,0.1463,0.1465,0.1522,0.1522,0.1522,0.1546,0.1546,0.1547,0.1604,0.1605,0.1606,0.1607,0.1767,0.1771,0.1775,0,0,0,0,0,0,0,0,0,0,0,0,0,0.1493,0.1465,0.1522,0.155,0.1552,0.1545,0.1546,0.1547,0.1604,0.1605,0.1606,0.1607,0.1765,0.1771,0.1776,0.1786,0,0,0.1792,0.1795,0,0,0,0,0,0,0,0,0.1491,0.1495,0.1546,0.1548,0.155,0.1569,0.1584,0.1632,0.1603,0.1589,0.1606,0.1608,0.171,0.172,0.1727,0.1793,0.18,0.1793,0.1796,0.1798,0.18,0,0,0,0,0,0,0,0.1489,0.1494,0.1536,0.1546,0.1548,0.1539,0.1545,0.1593,0.1649,0.159,0.1593,0.1588,0.1714,0.1721,0.1731,0.1803,0.1793,0.1797,0.1801,0.1803,0.2189,0.2196,0,0,0,0,0,0,0.1479,0.1493,0.1535,0.1537,0.1518,0.1539,0.1546,0.1566,0.1646,0.1656,0.1587,0.1591,0.1712,0.1725,0.1737,0.2004,0.1798,0.1803,0.1806,0.2182,0.2191,0.2199,0,0,0,0,0,0,0.1478,0.1484,0.1534,0.151,0.1515,0.1539,0.156,0.1565,0.1634,0.1641,0.1656,0.1656,0.1713,0.173,0.1861,0.2001,0.1806,0.1811,0.2174,0.2185,0.2195,0.2378,0,0,0,0,0,0,0.1477,0.1484,0.1532,0.151,0.1516,0.1571,0.1558,0.1565,0.1622,0.163,0.1704,0.1716,0.1715,0.1854,0.1867,0.2005,0.1815,0.2165,0.2179,0.2191,0.2363,0.2393,0.2419,0,0,0,0,0,0.1475,0.1499,0.1535,0.1541,0.157,0.1572,0.1577,0.1598,0.1626,0.1665,0.1742,0.1717,0.1949,0.1862,0.1876,0.202,0.2159,0.2175,0.219,0.235,0.2387,0.2419,0,0,0,0,0,0,0.1559,0.1507,0.1545,0.1577,0.1603,0.1581,0.1605,0.1637,0.1724,0.1754,0.1778,0.1797,0.1983,0.1975,0.188,0.2179,0.2062,0.2081,0.2179,0.2214,0.2242,0.22,0.1819,0,0,0,0,0,0.1587,0.1566,0.1568,0.1613,0.1613,0.1634,0.1653,0.1678,0.1724,0.1764,0.1844,0.194,0.2049,0.2106,0.2192,0.2323,0.2265,0.2439,0.2467,0.2491,0.2474,0.2501,0.2527,0.2251,0.2251,0.225,0,0,0.1634,0.1608,0.1607,0.1624,0.1635,0.1674,0.165,0.1689,0.1773,0.177,0.1951,0.2045,0.2111,0.2285,0.2368,0.2297,0.255,0.2511,0.253,0.2499,0.252,0.2546,0.2568,0.2261,0.2259,0.2258,0,0,0.1665,0.1696,0.1672,0.1693,0.1712,0.1735,0.1766,0.1816,0.1886,0.2046,0.2101,0.2261,0.2423,0.25,0.2552,0.2781,0.2708,0.286,0.2954,0.2984,0.3004,0.3021,0.2998,0.3011,0.2861,0.2862,0.2862,0,0.1722,0.1733,0.1687,0.1692,0.1731,0.1776,0.1827,0.1896,0.2021,0.2089,0.2137,0.2433,0.2515,0.2688,0.2813,0.2841,0.2826,0.281,0.3012,0.3027,0.3041,0.3013,0.3025,0.2872,0.2871,0.287,0.2869,0,0.1729,0.1779,0.1773,0.1799,0.1842,0.1894,0.1964,0.2076,0.2197,0.2276,0.2511,0.2641,0.2791,0.2905,0.2943,0.3131,0.3079,0.3045,0.29,0.3078,0.304,0.3049,0.2888,0.2884,0.2881,0.2878,0,0,0.1748,0.1764,0.1774,0.1816,0.1911,0.1928,0.2083,0.2204,0.2292,0.25,0.2634,0.2914,0.2982,0.3049,0.3141,0.322,0.336,0.3209,0.3206,0.3141,0.3402,0.3197,0.3185,0.3367,0.3369,0.3372,0.3337,0,0.1791,0.1794,0.1823,0.1933,0.1965,0.2061,0.2181,0.2306,0.2448,0.2599,0.2761,0.2944,0.3031,0.3147,0.3243,0.3347,0.3392,0.3369,0.3277,0.3273,0.3031,0.3192,0.3035,0.2977,0.3345,0.3346,0.3347,0,0.1809,0.1808,0.1873,0.1975,0.1996,0.2097,0.226,0.2375,0.2563,0.2676,0.2857,0.2969,0.3186,0.321,0.3391,0.3381,0.3409,0.3455,0.3452,0.3188,0.3084,0.2862,0.2978,0.336,0.3359,0.3358,0.3358,0,0.1788,0.1867,0.1914,0.1952,0.2064,0.2149,0.2251,0.2421,0.2515,0.2735,0.2839,0.3037,0.3186,0.3267,0.341,0.3415,0.3538,0.3514,0.3323,0.3306,0.3108,0.3068,0.3571,0.3571,0.3571,0.3572,0.3572,0,0.181,0.1862,0.1915,0.1932,0.2037,0.2135,0.2277,0.2395,0.2569,0.2697,0.2882,0.3021,0.3224,0.3325,0.3394,0.3388,0.3501,0.3345,0.3295,0.3172,0.314,0.3412,0.3394,0.357,0.357,0.3571,0.3571,0,0.1783,0.1825,0.1874,0.1967,0.2026,0.2097,0.2281,0.2363,0.2547,0.2719,0.2804,0.3042,0.3192,0.3291,0.3428,0.3351,0.3365,0.331,0.3129,0.3056,0.3105,0.3099,0.3076,0.3068,0.3062,0.3057,0.3053,0,0.1736,0.1751,0.1844,0.1913,0.1981,0.2107,0.2198,0.2358,0.2454,0.2735,0.2809,0.301,0.3127,0.3187,0.3134,0.3087,0.324,0.2852,0.2814,0.3107,0.3062,0.3065,0.3066,0.265,0.2642,0.2636,0.2632,0,0.1644,0.1696,0.1728,0.1867,0.1976,0.2063,0.2214,0.2266,0.2472,0.261,0.2825,0.2934,0.2989,0.2904,0.2789,0.2739,0.2844,0.2717,0.3115,0.277,0.2694,0.2653,0.2671,0.2579,0.2584,0.2588,0.2591,0.2593,0.1572,0.1575,0.1664,0.1826,0.1946,0.2055,0.2128,0.2251,0.2371,0.2545,0.2695,0.277,0.2725,0.2474,0.2392,0.2311,0.2444,0.2365,0.2389,0.2419,0.2347,0.2261,0.2049,0.2051,0.2053,0.2055,0.2056,0,0.1454,0.154,0.164,0.1808,0.194,0.2062,0.2167,0.2212,0.2337,0.2384,0.2517,0.227,0.2176,0.2179,0.1963,0.1842,0.1887,0.1799,0.1918,0.1969,0.2014,0.1929,0.1517,0.1516,0.1514,0.1513,0,0,0.1404,0.1447,0.152,0.1758,0.1955,0.2092,0.2158,0.2201,0.2215,0.2128,0.2085,0.213,0.2132,0.1825,0.1733,0.1647,0.1813,0.1577,0.2011,0.2209,0.2254,0.233,0.2251,0,0,0,0,0]},{"header":{"parameterUnit":"m.s-1","parameterCategory":2,"la1":30.2991,"la2":30.254,"lo1":-89.0895,"lo2":-89.0444,"dy":0.0017,"dx":0.0017,"nx":28,"ny":28,"refTime":"2023-08-10T09:00:00:Z","depth":"2","parameterNumber":3,"parameterNumberName":"V-component_of_CURRENTS"},"data":[0,0,0,0,0,0,0,0,0,0,0,0,0,0,0,0,0,0,0,0,0,0,0,0,0,0,0,0,0,0,0,0,0,0,0,0,0,0,0,0,0,0,0,0,0,0,0,0,0,0,0,0,0,0,0,0,0,0,-0.0397,-0.0397,0,-0.0429,-0.0429,-0.0429,-0.0512,-0.0514,-0.0515,-0.0517,-0.0639,-0.064,-0.0642,0,0,0,0,0,0,0,0,0,0,0,0,0,-0.042,-0.0419,-0.0397,-0.0397,-0.0397,-0.0428,-0.0429,-0.043,-0.0512,-0.0514,-0.0516,-0.0518,-0.0638,-0.064,-0.0642,0,0,0,0,0,0,0,0,0,0,0,0,0,-0.0427,-0.0419,-0.0397,-0.0441,-0.0446,-0.0428,-0.0429,-0.043,-0.0511,-0.0514,-0.0516,-0.0519,-0.0638,-0.064,-0.0643,-0.0608,0,0,-0.065,-0.0651,0,0,0,0,0,0,0,0,-0.0427,-0.0427,-0.0434,-0.0438,-0.0443,-0.0468,-0.0482,-0.0493,-0.0511,-0.0487,-0.0517,-0.052,-0.0588,-0.0594,-0.0595,-0.0613,-0.0619,-0.065,-0.0652,-0.0653,-0.0654,0,0,0,0,0,0,0,-0.0426,-0.0426,-0.041,-0.0435,-0.044,-0.0464,-0.0468,-0.0484,-0.0525,-0.0489,-0.0495,-0.0497,-0.0591,-0.0592,-0.0598,-0.062,-0.065,-0.0653,-0.0654,-0.0655,-0.07,-0.0699,0,0,0,0,0,0,-0.0417,-0.0425,-0.0409,-0.0411,-0.044,-0.0462,-0.0466,-0.0458,-0.0523,-0.0535,-0.0494,-0.05,-0.0586,-0.0595,-0.0603,-0.0591,-0.0653,-0.0655,-0.0657,-0.07,-0.0699,-0.0699,0,0,0,0,0,0,-0.0417,-0.0415,-0.0408,-0.0419,-0.042,-0.0459,-0.0449,-0.0457,-0.0485,-0.0526,-0.054,-0.0517,-0.0589,-0.06,-0.0645,-0.0596,-0.0657,-0.0659,-0.07,-0.07,-0.0699,-0.0551,0,0,0,0,0,0,-0.0417,-0.0414,-0.0407,-0.0418,-0.0419,-0.0394,-0.0447,-0.0456,-0.048,-0.0489,-0.0549,-0.0561,-0.0592,-0.0641,-0.0647,-0.0601,-0.0661,-0.0701,-0.07,-0.0699,-0.0556,-0.0546,-0.0536,0,0,0,0,0,-0.0418,-0.039,-0.0406,-0.0404,-0.0406,-0.0393,-0.0395,-0.0433,-0.0479,-0.0472,-0.0535,-0.0561,-0.0641,-0.0642,-0.065,-0.0603,-0.0701,-0.07,-0.0699,-0.0561,-0.0548,-0.0537,0,0,0,0,0,0,-0.0379,-0.0396,-0.0414,-0.0389,-0.0391,-0.0407,-0.0404,-0.0436,-0.0477,-0.0499,-0.0559,-0.0574,-0.0597,-0.0631,-0.0631,-0.062,-0.0673,-0.0674,-0.0565,-0.0553,-0.0543,-0.0496,-0.0663,0,0,0,0,0,-0.0368,-0.0364,-0.0374,-0.0352,-0.0356,-0.0386,-0.039,-0.0411,-0.0446,-0.0467,-0.0513,-0.0563,-0.059,-0.0601,-0.0638,-0.0624,-0.0685,-0.0603,-0.0592,-0.0583,-0.0554,-0.0637,-0.0631,-0.0697,-0.0697,-0.0697,0,0,-0.0346,-0.0354,-0.0351,-0.0346,-0.0358,-0.0334,-0.0396,-0.0393,-0.0377,-0.0472,-0.0483,-0.0538,-0.0588,-0.058,-0.059,-0.0604,-0.0598,-0.0582,-0.0573,-0.0549,-0.0636,-0.0629,-0.0623,-0.0696,-0.0696,-0.0696,0,0,-0.0292,-0.0308,-0.0289,-0.0282,-0.0291,-0.0303,-0.0306,-0.0328,-0.0349,-0.0358,-0.0427,-0.0456,-0.0499,-0.0509,-0.0523,-0.0481,-0.0557,-0.0498,-0.0383,-0.0464,-0.0459,-0.0455,-0.0522,-0.0525,-0.0474,-0.0474,-0.0474,0,-0.0267,-0.0237,-0.0276,-0.0245,-0.0229,-0.0288,-0.0246,-0.026,-0.0294,-0.0295,-0.035,-0.0402,-0.0453,-0.0422,-0.0406,-0.0449,-0.0517,-0.0416,-0.0448,-0.0445,-0.0444,-0.0514,-0.0519,-0.0467,-0.0467,-0.0468,-0.0469,0,-0.0192,-0.0168,-0.0151,-0.0137,-0.0123,-0.0096,-0.0113,-0.0112,-0.0157,-0.0173,-0.0181,-0.0249,-0.0271,-0.0287,-0.0329,-0.0317,-0.0377,-0.0439,-0.0468,-0.0428,-0.0505,-0.0513,-0.0456,-0.0459,-0.0461,-0.0463,0,0,-0.0128,-0.0109,-0.0098,-0.0069,-0.0063,-0.0036,-0.0006,0.0014,0.0048,-0.0006,0.0033,-0.0018,-0.0065,-0.0085,-0.0141,-0.0189,-0.0239,-0.029,-0.0298,-0.0336,-0.0418,-0.0404,-0.0413,-0.032,-0.032,-0.0321,-0.0475,0,-0.0058,0.0013,0.001,0.0096,0.013,0.0115,0.0158,0.017,0.0156,0.0178,0.0112,0.0112,0.0015,0.0016,-0.0049,-0.0176,-0.0255,-0.0191,-0.0469,-0.0476,-0.0453,-0.0419,-0.0384,-0.0514,-0.0484,-0.0486,-0.0487,0,0.0022,0.0058,0.0137,0.021,0.0227,0.0272,0.0341,0.0378,0.0391,0.0382,0.037,0.0303,0.0273,0.0149,-0.0042,-0.0002,-0.02,-0.0325,-0.0337,-0.0373,-0.0476,-0.0554,-0.0531,-0.0502,-0.05,-0.0499,-0.0498,0,0.0078,0.016,0.022,0.0247,0.0309,0.0356,0.0395,0.0435,0.0491,0.0515,0.0559,0.0473,0.0458,0.0225,-0.0003,-0.0045,-0.0243,-0.0348,-0.0532,-0.0534,-0.0578,-0.0582,-0.0546,-0.0546,-0.0546,-0.0546,-0.0545,0,0.0152,0.0212,0.0251,0.0292,0.0398,0.0423,0.0538,0.0575,0.0643,0.0742,0.0666,0.0727,0.0467,0.0335,0.0058,-0.0209,-0.0211,-0.0491,-0.0564,-0.0526,-0.0523,-0.0574,-0.0575,-0.0551,-0.055,-0.0549,-0.0548,0,0.0205,0.0218,0.031,0.0389,0.042,0.0502,0.0629,0.0724,0.0778,0.0913,0.093,0.091,0.075,0.0477,0.0134,-0.0095,-0.0382,-0.0513,-0.0424,-0.0483,-0.0651,-0.0643,-0.0735,-0.0736,-0.0736,-0.0737,-0.0737,0,0.0235,0.0277,0.0382,0.0445,0.0483,0.0597,0.0688,0.0774,0.0889,0.1036,0.1117,0.1034,0.0976,0.0543,0.0124,-0.0329,-0.0398,-0.0568,-0.0646,-0.0603,-0.0667,-0.0658,-0.0649,-0.0666,-0.0666,-0.0665,-0.0665,0,0.031,0.0336,0.041,0.0527,0.0628,0.0768,0.0906,0.1016,0.115,0.1267,0.1406,0.1369,0.0986,0.0581,0.0021,-0.0269,-0.0476,-0.0579,-0.0566,-0.0597,-0.0543,-0.0603,-0.0597,-0.0663,-0.0663,-0.0664,-0.0664,-0.0664,0.0363,0.0436,0.0517,0.0637,0.076,0.0938,0.1076,0.1245,0.1435,0.1589,0.1553,0.1461,0.0994,0.0239,-0.0126,-0.0476,-0.0541,-0.0701,-0.07,-0.07,-0.0638,-0.0584,-0.0701,-0.0702,-0.0702,-0.0702,-0.0703,0,0.0427,0.0497,0.0626,0.0777,0.0931,0.098,0.1225,0.1386,0.1634,0.1642,0.1685,0.1206,0.074,0.0282,-0.0266,-0.062,-0.0635,-0.0675,-0.0644,-0.0645,-0.0647,-0.058,-0.063,-0.063,-0.063,-0.063,0,0,0.0466,0.0583,0.066,0.0897,0.101,0.1241,0.1395,0.1638,0.1721,0.173,0.1584,0.1273,0.0731,0.0323,-0.0113,-0.0342,-0.0393,-0.037,-0.0405,-0.0318,-0.0313,-0.0654,-0.0552,0,0,0,0,0]}],[{"header":{"parameterUnit":"m.s-1","parameterCategory":2,"la1":30.2991,"la2":30.254,"lo1":-89.0895,"lo2":-89.0444,"dy":0.0017,"dx":0.0017,"nx":28,"ny":28,"refTime":"2023-08-10T09:00:00:Z","depth":"4","parameterNumber":2,"parameterNumberName":"U-component_of_CURRENTS"},"data":[0,0,0,0,0,0,0,0,0,0,0,0,0,0,0,0,0,0,0,0,0,0,0,0,0,0,0,0,0,0,0,0,0,0,0,0,0,0,0,0,0,0,0,0,0,0,0,0,0,0,0,0,0,0,0,0,0,0,0.0374,0.0374,0,0.0434,0.0435,0.0436,0.0517,0.0519,0.052,0.0522,0.0599,0.06,0.06,0,0,0,0,0,0,0,0,0,0,0,0,0,0.0277,0.0278,0.0374,0.0374,0.0375,0.0434,0.0435,0.0436,0.0517,0.0519,0.0521,0.0522,0.0599,0.06,0.06,0,0,0,0,0,0,0,0,0,0,0,0,0,0.0325,0.0279,0.0373,0.0424,0.0429,0.0434,0.0435,0.0436,0.0517,0.0519,0.0521,0.0523,0.0598,0.0599,0.0601,0.0564,0,0,0.0604,0.0604,0,0,0,0,0,0,0,0,0.0323,0.0329,0.0415,0.042,0.0426,0.0471,0.0429,0.048,0.0516,0.0482,0.0522,0.0524,0.0557,0.0561,0.0566,0.0567,0.0571,0.0604,0.0605,0.0605,0.0605,0,0,0,0,0,0,0,0.0319,0.0326,0.0397,0.0416,0.0423,0.0426,0.0435,0.0439,0.0506,0.0485,0.0492,0.0499,0.056,0.0565,0.0569,0.0572,0.0604,0.0605,0.0605,0.0606,0.0661,0.0662,0,0,0,0,0,0,0.0314,0.0323,0.0395,0.0399,0.038,0.0426,0.0437,0.0454,0.0506,0.0516,0.0497,0.0503,0.0562,0.0568,0.0572,0.0645,0.0605,0.0606,0.0607,0.066,0.0661,0.0662,0,0,0,0,0,0,0.0312,0.032,0.0392,0.0362,0.0372,0.0426,0.0444,0.0454,0.0501,0.0515,0.0526,0.054,0.0564,0.0571,0.0619,0.0644,0.0606,0.0607,0.0659,0.0661,0.0662,0.0718,0,0,0,0,0,0,0.0309,0.0319,0.0338,0.0362,0.0374,0.0424,0.0442,0.0454,0.05,0.0509,0.0554,0.0561,0.0566,0.0618,0.062,0.0645,0.0608,0.0658,0.066,0.0662,0.0715,0.0721,0.0726,0,0,0,0,0,0.0305,0.0322,0.0338,0.0347,0.0395,0.0425,0.0432,0.0475,0.0501,0.0525,0.0563,0.0562,0.0629,0.0619,0.0622,0.0648,0.0658,0.066,0.0661,0.0712,0.072,0.0726,0,0,0,0,0,0,0.0286,0.0332,0.0351,0.0381,0.0414,0.044,0.0469,0.0492,0.0538,0.0562,0.0575,0.0584,0.0631,0.063,0.0619,0.0667,0.0641,0.0644,0.0679,0.0686,0.0691,0.0688,0.0609,0,0,0,0,0,0.0288,0.032,0.0356,0.0381,0.0405,0.0442,0.0463,0.0495,0.0532,0.0557,0.0584,0.0612,0.063,0.0655,0.0665,0.0695,0.0678,0.0712,0.0717,0.0722,0.0721,0.0709,0.0713,0.0668,0.0668,0.0668,0,0,0.0283,0.0315,0.0331,0.038,0.0414,0.0451,0.0463,0.0512,0.0548,0.0554,0.062,0.0631,0.064,0.0677,0.0697,0.069,0.0729,0.0724,0.0728,0.0724,0.0711,0.0716,0.0719,0.067,0.067,0.0669,0,0,0.0288,0.0327,0.0359,0.0395,0.0455,0.0477,0.05,0.0549,0.0585,0.0633,0.0646,0.0673,0.0711,0.0719,0.0726,0.0763,0.0752,0.0777,0.0813,0.0803,0.0806,0.0809,0.0807,0.0809,0.0788,0.0788,0.0788,0,0.0284,0.0329,0.0369,0.0415,0.0448,0.0495,0.0535,0.0571,0.0629,0.0655,0.0667,0.0714,0.0722,0.0756,0.0776,0.0775,0.0776,0.079,0.081,0.0812,0.0814,0.0811,0.0813,0.0791,0.0791,0.079,0.079,0,0.0313,0.036,0.0386,0.046,0.0497,0.0542,0.0596,0.0644,0.0686,0.0712,0.0763,0.077,0.0798,0.0804,0.0807,0.0832,0.0831,0.0811,0.0793,0.0822,0.0817,0.0818,0.0795,0.0794,0.0793,0.0792,0,0,0.0285,0.0385,0.0399,0.0442,0.0529,0.0562,0.063,0.069,0.074,0.0783,0.0827,0.0851,0.0861,0.0868,0.0871,0.0867,0.0883,0.086,0.0859,0.0859,0.0879,0.0879,0.0879,0.0878,0.0878,0.0878,0.0876,0,0.0301,0.0376,0.0426,0.0503,0.055,0.0617,0.0671,0.0735,0.0786,0.0841,0.0855,0.0897,0.0886,0.091,0.0905,0.0888,0.0886,0.0886,0.0851,0.0849,0.0845,0.0879,0.0879,0.0876,0.0876,0.0876,0.0876,0,0.0318,0.037,0.0439,0.0535,0.0564,0.0614,0.0713,0.077,0.0852,0.0891,0.0934,0.0956,0.0977,0.0951,0.0937,0.0947,0.0921,0.0897,0.0896,0.0873,0.085,0.0837,0.0877,0.0877,0.0877,0.0877,0.0877,0,0.0278,0.0381,0.0433,0.047,0.0581,0.063,0.0693,0.0786,0.0846,0.0929,0.0974,0.1,0.1025,0.0993,0.0961,0.0961,0.0926,0.0912,0.0883,0.0883,0.0857,0.0854,0.0886,0.0886,0.0886,0.0886,0.0886,0,0.0276,0.0322,0.0425,0.0459,0.0535,0.0619,0.0707,0.0775,0.0874,0.0929,0.0999,0.1021,0.1039,0.1029,0.098,0.094,0.094,0.0895,0.0883,0.0883,0.0883,0.0858,0.0855,0.0886,0.0886,0.0886,0.0886,0,0.0227,0.0295,0.0361,0.0477,0.052,0.0576,0.072,0.0779,0.0881,0.0951,0.0984,0.1059,0.1055,0.1053,0.1003,0.0974,0.0918,0.0895,0.0908,0.0895,0.0881,0.0881,0.0884,0.0884,0.0884,0.0884,0.0884,0,0.0211,0.0236,0.0357,0.0406,0.0465,0.0566,0.0635,0.0764,0.0813,0.0939,0.0945,0.1017,0.1043,0.0986,0.0975,0.0927,0.0903,0.0896,0.0885,0.0894,0.0881,0.0881,0.0881,0.0884,0.0884,0.0884,0.0884,0,0.0166,0.0206,0.0262,0.0362,0.0443,0.0532,0.0626,0.0659,0.0784,0.0879,0.0917,0.0957,0.0967,0.0957,0.0953,0.0891,0.0918,0.0896,0.0896,0.0885,0.0894,0.0881,0.0881,0.0884,0.0884,0.0884,0.0884,0,0.0128,0.0151,0.0229,0.0318,0.0414,0.0479,0.0537,0.0608,0.0687,0.0818,0.0803,0.0869,0.093,0.0934,0.0888,0.0889,0.0881,0.0862,0.0863,0.0864,0.0861,0.087,0.0849,0,0,0,0,0,0.0094,0.0121,0.0186,0.0283,0.0373,0.0434,0.0529,0.0579,0.0674,0.0691,0.0766,0.0769,0.0812,0.0829,0.0824,0.0864,0.0862,0.0858,0.0835,0.0884,0.0884,0.0885,0,0,0,0,0,0,0.0076,0.0121,0.0162,0.0244,0.0299,0.0393,0.0449,0.0507,0.0522,0.0619,0.0629,0.0738,0.0758,0.0796,0.0807,0.0818,0.0798,0.0906,0.0905,0.0884,0.0884,0.0884,0.0885,0,0,0,0,0]},{"header":{"parameterUnit":"m.s-1","parameterCategory":2,"la1":30.2991,"la2":30.254,"lo1":-89.0895,"lo2":-89.0444,"dy":0.0017,"dx":0.0017,"nx":28,"ny":28,"refTime":"2023-08-10T09:00:00:Z","depth":"4","parameterNumber":3,"parameterNumberName":"V-component_of_CURRENTS"},"data":[0,0,0,0,0,0,0,0,0,0,0,0,0,0,0,0,0,0,0,0,0,0,0,0,0,0,0,0,0,0,0,0,0,0,0,0,0,0,0,0,0,0,0,0,0,0,0,0,0,0,0,0,0,0,0,0,0,0,0.0113,0.0113,0,0.0046,0.0045,0.0044,0.0014,0.0015,0.0015,0.0015,-0.0084,-0.0086,-0.0089,0,0,0,0,0,0,0,0,0,0,0,0,0,0.0168,0.0168,0.0113,0.0112,0.0112,0.0046,0.0045,0.0044,0.0014,0.0015,0.0015,0.0015,-0.0083,-0.0086,-0.0089,0,0,0,0,0,0,0,0,0,0,0,0,0,0.0127,0.0168,0.0113,0.0089,0.0086,0.0046,0.0045,0.0044,0.0014,0.0015,0.0015,0.0015,-0.0082,-0.0086,-0.009,-0.0118,0,0,-0.0102,-0.0104,0,0,0,0,0,0,0,0,0.0129,0.0125,0.0093,0.0091,0.0087,0.0039,0.0028,-0.0012,0.0014,0.0042,0.0015,0.0015,-0.0046,-0.0053,-0.0065,-0.0122,-0.0127,-0.0102,-0.0105,-0.0107,-0.0108,0,0,0,0,0,0,0,0.0132,0.0128,0.0087,0.0093,0.0089,0.0065,0.0059,0.002,-0.0003,0.0039,0.0037,0.0029,-0.0048,-0.0061,-0.0068,-0.0128,-0.0102,-0.0106,-0.0108,-0.011,-0.0267,-0.0269,0,0,0,0,0,0,0.0143,0.0131,0.0089,0.0084,0.0109,0.0064,0.0058,0.0054,-0.0002,-0.001,0.0029,0.0028,-0.0054,-0.0063,-0.0072,-0.0147,-0.0107,-0.011,-0.0113,-0.0265,-0.0268,-0.0269,0,0,0,0,0,0,0.0145,0.014,0.0091,0.0106,0.0098,0.0063,0.0059,0.0053,0.0027,-0.0009,-0.0018,0.0008,-0.0055,-0.0066,-0.0125,-0.0149,-0.0112,-0.0116,-0.0263,-0.0266,-0.0268,-0.0273,0,0,0,0,0,0,0.0147,0.0141,0.0136,0.0107,0.0097,0.0066,0.0058,0.0051,0.0023,0.002,-0.003,-0.0038,-0.0055,-0.0119,-0.0129,-0.0154,-0.0119,-0.0261,-0.0265,-0.0268,-0.0271,-0.0276,-0.028,0,0,0,0,0,0.0149,0.0142,0.0137,0.0131,0.0094,0.0066,0.0058,0.0034,0.0021,0.0011,-0.0034,-0.0037,-0.0147,-0.0124,-0.0136,-0.0162,-0.026,-0.0264,-0.0267,-0.0269,-0.0275,-0.0279,0,0,0,0,0,0,0.0157,0.0138,0.0131,0.0117,0.0093,0.0061,0.0044,0.0026,-0.0018,-0.0027,-0.0061,-0.0072,-0.0134,-0.0153,-0.0126,-0.0219,-0.0204,-0.021,-0.0201,-0.0207,-0.0211,-0.0205,-0.0123,0,0,0,0,0,0.0159,0.0152,0.0127,0.0114,0.0102,0.007,0.0052,0.0036,-0.0003,-0.0022,-0.0058,-0.0106,-0.0158,-0.0184,-0.0227,-0.0278,-0.0285,-0.0304,-0.0308,-0.0312,-0.0317,-0.0355,-0.0363,-0.0282,-0.0282,-0.0282,0,0,0.0158,0.0145,0.014,0.0115,0.0093,0.0075,0.0059,0.003,0.0004,-0.0027,-0.0081,-0.0124,-0.0177,-0.0235,-0.0263,-0.0253,-0.0336,-0.0317,-0.0319,-0.0323,-0.036,-0.0368,-0.0374,-0.0285,-0.0284,-0.0284,0,0,0.0156,0.014,0.0136,0.0119,0.009,0.0068,0.0058,0.0019,-0.001,-0.0062,-0.0101,-0.0159,-0.0227,-0.0271,-0.0303,-0.036,-0.036,-0.0377,-0.0393,-0.043,-0.0436,-0.0442,-0.0443,-0.0449,-0.0376,-0.0376,-0.0376,0,0.0159,0.0148,0.0128,0.0119,0.0099,0.0065,0.0049,0.0015,-0.0041,-0.0079,-0.0079,-0.0208,-0.0244,-0.0332,-0.0351,-0.0369,-0.0379,-0.0363,-0.0433,-0.0439,-0.0445,-0.0445,-0.0451,-0.0377,-0.0377,-0.0377,-0.0377,0,0.0152,0.0144,0.0136,0.0117,0.0091,0.0071,0.0028,-0.001,-0.005,-0.009,-0.0183,-0.024,-0.0314,-0.0339,-0.0363,-0.0437,-0.0426,-0.0432,-0.0411,-0.0453,-0.045,-0.0457,-0.0378,-0.0378,-0.0378,-0.0377,0,0,0.0159,0.014,0.0138,0.0128,0.0088,0.0066,0.0015,-0.0046,-0.0092,-0.0152,-0.022,-0.0312,-0.0347,-0.0387,-0.043,-0.0466,-0.0506,-0.0467,-0.0468,-0.0452,-0.0566,-0.0546,-0.055,-0.0526,-0.0527,-0.0529,-0.054,0,0.0161,0.0157,0.0135,0.0111,0.0099,0.0051,0.0004,-0.0059,-0.0118,-0.019,-0.027,-0.0343,-0.0365,-0.0404,-0.0449,-0.0503,-0.0527,-0.0501,-0.0542,-0.0543,-0.0508,-0.0559,-0.0534,-0.0545,-0.0546,-0.0547,-0.0548,0,0.0156,0.0154,0.0146,0.0104,0.0091,0.0067,-0.0019,-0.0064,-0.0169,-0.0217,-0.0303,-0.0362,-0.0451,-0.0448,-0.0545,-0.0529,-0.0547,-0.0572,-0.0573,-0.056,-0.0536,-0.0502,-0.0559,-0.0558,-0.0558,-0.0557,-0.0556,0,0.0166,0.0151,0.0146,0.0136,0.0089,0.0058,0.0018,-0.0076,-0.0122,-0.0232,-0.0271,-0.0388,-0.0439,-0.0501,-0.0558,-0.0555,-0.0641,-0.0639,-0.0632,-0.0628,-0.0636,-0.063,-0.069,-0.069,-0.069,-0.069,-0.069,0,0.0167,0.0155,0.0155,0.015,0.0118,0.0074,0.0017,-0.0043,-0.0123,-0.0173,-0.0278,-0.0331,-0.0455,-0.0522,-0.0566,-0.0621,-0.0644,-0.0645,-0.0644,-0.0635,-0.063,-0.0639,-0.0633,-0.069,-0.069,-0.069,-0.069,0,0.0159,0.0168,0.016,0.0136,0.0126,0.0098,0.0039,-0.0003,-0.0074,-0.0137,-0.0167,-0.0296,-0.0386,-0.0487,-0.0586,-0.0618,-0.0675,-0.0678,-0.0645,-0.0639,-0.0629,-0.0624,-0.068,-0.068,-0.068,-0.0679,-0.0679,0,0.0148,0.0155,0.0162,0.0162,0.0149,0.0115,0.0086,0.0022,-0.0011,-0.0104,-0.013,-0.0241,-0.0325,-0.0445,-0.0557,-0.065,-0.0654,-0.0674,-0.0678,-0.0642,-0.0635,-0.063,-0.0625,-0.0679,-0.0679,-0.0679,-0.0679,0,0.0124,0.0142,0.0144,0.0162,0.0152,0.0132,0.0097,0.0084,0.0018,-0.0029,-0.0092,-0.0187,-0.0293,-0.0421,-0.0504,-0.0567,-0.067,-0.0672,-0.0673,-0.0677,-0.0641,-0.0633,-0.0628,-0.0678,-0.0678,-0.0678,-0.0678,0,0.0109,0.0111,0.014,0.0145,0.0157,0.015,0.0121,0.0092,0.006,-0.0017,-0.0028,-0.0157,-0.0241,-0.0376,-0.0448,-0.0526,-0.054,-0.0549,-0.0557,-0.0559,-0.0532,-0.047,-0.0463,0,0,0,0,0,0.0095,0.0104,0.0114,0.0132,0.0154,0.0163,0.0133,0.0104,0.007,0.0047,0.0013,-0.0075,-0.022,-0.0305,-0.0375,-0.0455,-0.0567,-0.054,-0.0583,-0.0673,-0.0674,-0.0664,0,0,0,0,0,0,0.0084,0.0101,0.0112,0.0139,0.0161,0.0169,0.0162,0.0126,0.0107,0.0069,-0.001,-0.0057,-0.0207,-0.0154,-0.0357,-0.039,-0.0421,-0.0616,-0.0617,-0.0672,-0.0673,-0.0674,-0.0664,0,0,0,0,0]}]]